Time,TemperatureF,DewpointF,PressureIn,WindDirection,WindDirectionDegrees,WindSpeedMPH,WindSpeedGustMPH,Humidity,HourlyPrecipIn,Conditions,Clouds,dailyrainin,SoftwareType,DateUTC
2013-06-26 00:00:00,76.2,71.7,29.64,SE,132,1.0,6.0,86,0.00,,,0.00,VWS V14.01,2013-06-26 05:00:00,
2013-06-26 00:01:00,76.2,71.7,29.64,ESE,115,1.0,1.0,86,0.00,,BKN070,0.00,VWS V14.01,2013-06-26 05:01:00,
2013-06-26 00:06:00,76.0,71.9,29.63,SSE,165,0.0,3.0,87,0.00,,BKN070,0.00,VWS V14.01,2013-06-26 05:06:00,
2013-06-26 00:11:00,75.9,71.8,29.63,SSE,149,0.0,3.0,87,0.00,,BKN070,0.00,VWS V14.01,2013-06-26 05:11:00,
2013-06-26 00:16:00,75.7,71.6,29.63,South,171,3.0,3.0,87,0.00,,BKN070,0.00,VWS V14.01,2013-06-26 05:16:00,
2013-06-26 00:21:00,75.7,71.6,29.62,SE,145,1.0,3.0,87,0.00,,BKN070,0.00,VWS V14.01,2013-06-26 05:21:00,
2013-06-26 00:26:00,75.6,71.8,29.63,SE,131,1.0,3.0,88,0.00,,BKN070,0.00,VWS V14.01,2013-06-26 05:26:00,
2013-06-26 00:30:00,75.5,71.7,29.63,SE,145,1.0,3.0,88,0.00,,,0.00,VWS V14.01,2013-06-26 05:30:00,
2013-06-26 00:31:00,75.5,71.7,29.63,ESE,108,1.0,1.0,88,0.00,,BKN070,0.00,VWS V14.01,2013-06-26 05:31:00,
2013-06-26 00:36:00,75.2,71.7,29.62,SSE,148,1.0,2.0,89,0.00,,BKN070,0.00,VWS V14.01,2013-06-26 05:36:00,
2013-06-26 00:41:00,74.9,71.8,29.62,ESE,109,1.0,2.0,90,0.00,,BKN070,0.00,VWS V14.01,2013-06-26 05:41:00,
2013-06-26 00:46:00,74.4,71.6,29.62,ESE,117,2.0,3.0,91,0.00,,BKN070,0.00,VWS V14.01,2013-06-26 05:46:00,
2013-06-26 00:51:00,74.1,71.3,29.62,SE,125,2.0,4.0,91,0.00,,BKN070,0.00,VWS V14.01,2013-06-26 05:51:00,
2013-06-26 00:56:00,74.0,71.5,29.62,ESE,110,2.0,4.0,92,0.00,,FEW041,0.00,VWS V14.01,2013-06-26 05:56:00,
2013-06-26 01:00:00,74.0,71.5,29.62,ESE,117,1.0,4.0,92,0.00,,,0.00,VWS V14.01,2013-06-26 06:00:00,
2013-06-26 01:01:00,74.0,71.5,29.62,ESE,113,1.0,1.0,92,0.00,,FEW041,0.00,VWS V14.01,2013-06-26 06:01:00,
2013-06-26 01:06:00,74.0,71.5,29.62,ESE,118,1.0,2.0,92,0.00,,FEW041,0.00,VWS V14.01,2013-06-26 06:06:00,
2013-06-26 01:11:00,74.1,71.6,29.62,ESE,110,1.0,2.0,92,0.00,,FEW041,0.00,VWS V14.01,2013-06-26 06:11:00,
2013-06-26 01:16:00,74.1,71.6,29.62,East,98,2.0,2.0,92,0.00,,FEW041,0.00,VWS V14.01,2013-06-26 06:16:00,
2013-06-26 01:21:00,74.0,71.5,29.62,East,86,1.0,2.0,92,0.00,,FEW041,0.00,VWS V14.01,2013-06-26 06:21:00,
2013-06-26 01:26:00,74.0,71.5,29.62,East,100,0.0,2.0,92,0.00,,FEW041,0.00,VWS V14.01,2013-06-26 06:26:00,
2013-06-26 01:30:00,73.8,71.3,29.61,East,96,0.0,2.0,92,0.00,,,0.00,VWS V14.01,2013-06-26 06:30:00,
2013-06-26 01:31:00,73.8,71.3,29.61,East,96,0.0,0.0,92,0.00,,FEW041,0.00,VWS V14.01,2013-06-26 06:31:00,
2013-06-26 01:36:00,73.5,71.4,29.61,East,96,0.0,1.0,93,0.00,,FEW041,0.00,VWS V14.01,2013-06-26 06:36:00,
2013-06-26 01:41:00,73.2,71.1,29.61,East,84,0.0,1.0,93,0.00,,FEW041,0.00,VWS V14.01,2013-06-26 06:41:00,
2013-06-26 01:46:00,73.0,71.2,29.61,East,99,0.0,2.0,94,0.00,,FEW041,0.00,VWS V14.01,2013-06-26 06:46:00,
2013-06-26 01:51:00,73.2,71.4,29.61,ESE,104,2.0,4.0,94,0.00,,FEW041,0.00,VWS V14.01,2013-06-26 06:51:00,
2013-06-26 01:56:00,73.3,71.5,29.61,ESE,115,3.0,4.0,94,0.00,,FEW041,0.00,VWS V14.01,2013-06-26 06:56:00,
2013-06-26 02:00:00,73.3,71.5,29.61,ESE,113,3.0,4.0,94,0.00,,,0.00,VWS V14.01,2013-06-26 07:00:00,
2013-06-26 02:01:00,73.3,71.5,29.61,ESE,108,2.0,3.0,94,0.00,,CLR,0.00,VWS V14.01,2013-06-26 07:01:00,
2013-06-26 02:06:00,73.2,71.4,29.61,East,101,0.0,4.0,94,0.00,,CLR,0.00,VWS V14.01,2013-06-26 07:06:00,
2013-06-26 02:11:00,73.2,71.4,29.61,ESE,104,0.0,4.0,94,0.00,,CLR,0.00,VWS V14.01,2013-06-26 07:11:00,
2013-06-26 02:16:00,73.1,71.6,29.61,ESE,103,2.0,4.0,95,0.00,,CLR,0.00,VWS V14.01,2013-06-26 07:16:00,
2013-06-26 02:21:00,73.0,71.5,29.60,ESE,104,2.0,4.0,95,0.00,,CLR,0.00,VWS V14.01,2013-06-26 07:21:00,
2013-06-26 02:26:00,72.9,71.4,29.60,ESE,109,3.0,4.0,95,0.00,,CLR,0.00,VWS V14.01,2013-06-26 07:26:00,
2013-06-26 02:30:00,73.0,71.8,29.60,ESE,108,4.0,5.0,96,0.00,,,0.00,VWS V14.01,2013-06-26 07:30:00,
2013-06-26 02:31:00,73.0,71.8,29.60,ESE,106,5.0,5.0,96,0.00,,CLR,0.00,VWS V14.01,2013-06-26 07:31:00,
2013-06-26 02:36:00,73.1,71.6,29.60,ESE,108,4.0,5.0,95,0.00,,CLR,0.00,VWS V14.01,2013-06-26 07:36:00,
2013-06-26 02:41:00,73.0,71.5,29.60,East,94,1.0,5.0,95,0.00,,CLR,0.00,VWS V14.01,2013-06-26 07:41:00,
2013-06-26 02:46:00,73.1,71.9,29.60,ESE,122,2.0,5.0,96,0.00,,CLR,0.00,VWS V14.01,2013-06-26 07:46:00,
2013-06-26 02:51:00,73.2,72.0,29.60,ESE,114,4.0,5.0,96,0.00,,CLR,0.00,VWS V14.01,2013-06-26 07:51:00,
2013-06-26 02:56:00,73.2,72.0,29.60,ESE,118,5.0,7.0,96,0.00,,SCT065,0.00,VWS V14.01,2013-06-26 07:56:00,
2013-06-26 03:00:00,73.3,72.1,29.60,ESE,109,7.0,7.0,96,0.00,,,0.00,VWS V14.01,2013-06-26 08:00:00,
2013-06-26 03:01:00,73.3,72.1,29.60,ESE,112,6.0,7.0,96,0.00,,SCT065,0.00,VWS V14.01,2013-06-26 08:01:00,
2013-06-26 03:06:00,73.3,72.1,29.60,ESE,115,4.0,9.0,96,0.00,,SCT065,0.00,VWS V14.01,2013-06-26 08:06:00,
2013-06-26 03:11:00,73.3,72.1,29.60,SE,142,4.0,9.0,96,0.00,,SCT065,0.00,VWS V14.01,2013-06-26 08:11:00,
2013-06-26 03:16:00,73.2,72.0,29.60,SE,127,5.0,9.0,96,0.00,,SCT065,0.00,VWS V14.01,2013-06-26 08:16:00,
2013-06-26 03:21:00,73.2,72.3,29.60,ESE,116,4.0,9.0,97,0.00,,SCT065,0.00,VWS V14.01,2013-06-26 08:21:00,
2013-06-26 03:26:00,73.3,72.4,29.60,SE,135,4.0,9.0,97,0.00,,SCT065,0.00,VWS V14.01,2013-06-26 08:26:00,
2013-06-26 03:30:00,73.3,72.1,29.60,ESE,119,3.0,9.0,96,0.00,,,0.00,VWS V14.01,2013-06-26 08:30:00,
2013-06-26 03:31:00,73.3,72.1,29.60,SE,141,3.0,3.0,96,0.00,,SCT065,0.00,VWS V14.01,2013-06-26 08:31:00,
2013-06-26 03:36:00,73.1,71.9,29.59,SE,125,4.0,6.0,96,0.00,,SCT065,0.00,VWS V14.01,2013-06-26 08:36:00,
2013-06-26 03:41:00,73.1,72.2,29.60,SSE,152,3.0,6.0,97,0.00,,SCT065,0.00,VWS V14.01,2013-06-26 08:41:00,
2013-06-26 03:46:00,73.1,72.2,29.60,SE,124,4.0,6.0,97,0.00,,SCT065,0.00,VWS V14.01,2013-06-26 08:46:00,
2013-06-26 03:51:00,73.1,72.2,29.60,SE,125,3.0,6.0,97,0.00,,SCT065,0.00,VWS V14.01,2013-06-26 08:51:00,
2013-06-26 03:56:00,73.1,72.2,29.60,SE,141,3.0,6.0,97,0.00,,SCT065,0.00,VWS V14.01,2013-06-26 08:56:00,
2013-06-26 04:00:00,73.1,72.2,29.60,ESE,108,3.0,3.0,97,0.00,,BKN090,0.00,VWS V14.01,2013-06-26 09:00:00,
2013-06-26 04:05:00,72.9,72.0,29.60,East,100,4.0,5.0,97,0.00,,BKN090,0.00,VWS V14.01,2013-06-26 09:05:00,
2013-06-26 04:10:00,73.0,72.1,29.61,ESE,103,4.0,6.0,97,0.00,,BKN090,0.00,VWS V14.01,2013-06-26 09:10:00,
2013-06-26 04:15:00,73.0,72.1,29.60,ESE,113,2.0,6.0,97,0.00,,BKN090,0.00,VWS V14.01,2013-06-26 09:15:00,
2013-06-26 04:20:00,73.0,72.1,29.60,ESE,109,2.0,6.0,97,0.00,,BKN090,0.00,VWS V14.01,2013-06-26 09:20:00,
2013-06-26 04:25:00,73.0,72.1,29.61,ESE,113,1.0,6.0,97,0.00,,BKN090,0.00,VWS V14.01,2013-06-26 09:25:00,
2013-06-26 04:30:00,73.0,72.1,29.61,SE,129,3.0,6.0,97,0.00,,BKN090,0.00,VWS V14.01,2013-06-26 09:30:00,
2013-06-26 04:35:00,73.0,72.1,29.61,ESE,122,3.0,5.0,97,0.00,,BKN090,0.00,VWS V14.01,2013-06-26 09:35:00,
2013-06-26 04:36:00,73.0,72.1,29.61,ESE,112,3.0,5.0,97,0.00,,BKN090,0.00,VWS V14.01,2013-06-26 09:36:00,
2013-06-26 04:40:00,72.9,72.0,29.61,ESE,120,3.0,5.0,97,0.00,,BKN090,0.00,VWS V14.01,2013-06-26 09:40:00,
2013-06-26 04:45:00,72.9,72.0,29.60,SSE,152,3.0,5.0,97,0.00,,BKN090,0.00,VWS V14.01,2013-06-26 09:45:00,
2013-06-26 04:50:00,72.8,72.2,29.61,SE,129,2.0,5.0,98,0.00,,BKN090,0.00,VWS V14.01,2013-06-26 09:50:00,
2013-06-26 04:55:00,72.8,72.2,29.60,SSE,155,3.0,5.0,98,0.00,,BKN090,0.00,VWS V14.01,2013-06-26 09:55:00,
2013-06-26 05:00:00,72.8,72.2,29.60,SSE,148,4.0,5.0,98,0.00,,BKN090,0.00,VWS V14.01,2013-06-26 10:00:00,
2013-06-26 05:05:00,72.7,72.1,29.60,SE,141,3.0,6.0,98,0.00,,BKN049,0.00,VWS V14.01,2013-06-26 10:05:00,
2013-06-26 05:10:00,72.7,72.1,29.60,ESE,117,6.0,10.0,98,0.00,,,0.00,VWS V14.01,2013-06-26 10:10:00,
2013-06-26 05:15:00,72.7,72.1,29.60,SE,136,4.0,10.0,98,0.00,,,0.00,VWS V14.01,2013-06-26 10:15:00,
2013-06-26 05:20:00,72.6,72.0,29.60,ESE,115,6.0,10.0,98,0.00,,,0.00,VWS V14.01,2013-06-26 10:20:00,
2013-06-26 05:25:00,72.4,71.8,29.59,SE,132,6.0,10.0,98,0.00,,,0.00,VWS V14.01,2013-06-26 10:25:00,
2013-06-26 05:30:00,72.3,71.7,29.59,SE,134,4.0,4.0,98,0.00,,,0.00,VWS V14.01,2013-06-26 10:30:00,
2013-06-26 05:35:00,72.2,71.6,29.59,SE,126,4.0,6.0,98,0.00,,,0.00,VWS V14.01,2013-06-26 10:35:00,
2013-06-26 05:40:00,72.0,71.4,29.60,ESE,123,5.0,7.0,98,0.00,,,0.00,VWS V14.01,2013-06-26 10:40:00,
2013-06-26 05:46:00,72.0,71.7,29.60,ESE,112,6.0,6.0,99,0.00,,,0.00,VWS V14.01,2013-06-26 10:46:00,
2013-06-26 05:51:00,72.0,71.7,29.60,SE,128,4.0,9.0,99,0.00,,,0.00,VWS V14.01,2013-06-26 10:51:00,
2013-06-26 05:56:00,71.8,71.2,29.60,SE,127,6.0,9.0,98,0.00,,,0.00,VWS V14.01,2013-06-26 10:56:00,
2013-06-26 06:00:00,71.5,70.9,29.61,SE,135,7.0,7.0,98,0.00,,,0.00,VWS V14.01,2013-06-26 11:00:00,
2013-06-26 06:05:00,71.3,70.7,29.61,SE,138,6.0,7.0,98,0.00,,,0.00,VWS V14.01,2013-06-26 11:05:00,
2013-06-26 06:10:00,71.1,70.5,29.61,SE,132,6.0,9.0,98,0.00,,,0.00,VWS V14.01,2013-06-26 11:10:00,
2013-06-26 06:15:00,70.9,70.6,29.61,SE,135,6.0,9.0,99,0.00,,,0.00,VWS V14.01,2013-06-26 11:15:00,
2013-06-26 06:20:00,70.9,70.6,29.61,SE,129,6.0,10.0,99,0.00,,,0.00,VWS V14.01,2013-06-26 11:20:00,
2013-06-26 06:25:00,70.8,70.5,29.61,SSE,155,7.0,10.0,99,0.00,,,0.00,VWS V14.01,2013-06-26 11:25:00,
2013-06-26 06:30:00,70.8,70.5,29.61,SSE,158,6.0,10.0,99,0.00,,,0.00,VWS V14.01,2013-06-26 11:30:00,
2013-06-26 06:35:00,70.8,70.5,29.62,SSE,155,6.0,8.0,99,0.00,,,0.00,VWS V14.01,2013-06-26 11:35:00,
2013-06-26 06:40:00,70.8,70.5,29.62,SE,132,5.0,8.0,99,0.00,,,0.00,VWS V14.01,2013-06-26 11:40:00,
2013-06-26 06:45:00,70.8,70.5,29.62,SE,136,4.0,9.0,99,0.00,,,0.00,VWS V14.01,2013-06-26 11:45:00,
2013-06-26 06:50:00,70.9,70.6,29.62,SE,134,5.0,11.0,99,0.00,,,0.00,VWS V14.01,2013-06-26 11:50:00,
2013-06-26 06:55:00,71.1,70.8,29.62,SSE,153,4.0,6.0,99,0.00,,BKN035,0.00,VWS V14.01,2013-06-26 11:55:00,
2013-06-26 07:00:00,71.3,71.0,29.62,SSE,148,6.0,9.0,99,0.00,,BKN035,0.00,VWS V14.01,2013-06-26 12:00:00,
2013-06-26 07:05:00,71.4,70.8,29.62,SE,136,5.0,9.0,98,0.00,,OVC033,0.00,VWS V14.01,2013-06-26 12:05:00,
2013-06-26 07:10:00,71.5,70.6,29.62,ESE,109,7.0,9.0,97,0.00,,OVC033,0.00,VWS V14.01,2013-06-26 12:10:00,
2013-06-26 07:15:00,71.6,70.7,29.62,SE,134,6.0,9.0,97,0.00,,OVC033,0.00,VWS V14.01,2013-06-26 12:15:00,
2013-06-26 07:20:00,71.7,70.8,29.62,SSE,160,5.0,9.0,97,0.00,,OVC033,0.00,VWS V14.01,2013-06-26 12:20:00,
2013-06-26 07:25:00,71.8,70.6,29.62,SSE,156,5.0,9.0,96,0.00,,OVC033,0.00,VWS V14.01,2013-06-26 12:25:00,
2013-06-26 07:30:00,71.9,70.4,29.62,SW,217,3.0,9.0,95,0.00,,OVC033,0.00,VWS V14.01,2013-06-26 12:30:00,
2013-06-26 07:35:00,72.0,70.5,29.62,SSE,153,5.0,8.0,95,0.00,,OVC033,0.00,VWS V14.01,2013-06-26 12:35:00,
2013-06-26 07:40:00,72.2,70.7,29.62,SSE,150,2.0,8.0,95,0.00,,OVC033,0.00,VWS V14.01,2013-06-26 12:40:00,
2013-06-26 07:45:00,72.3,70.8,29.62,SW,215,3.0,8.0,95,0.00,,BKN050,0.00,VWS V14.01,2013-06-26 12:45:00,
2013-06-26 07:50:00,72.5,71.0,29.62,South,175,3.0,9.0,95,0.00,,BKN050,0.00,VWS V14.01,2013-06-26 12:50:00,
2013-06-26 07:55:00,72.8,71.3,29.62,South,177,4.0,9.0,95,0.00,,BKN050,0.00,VWS V14.01,2013-06-26 12:55:00,
2013-06-26 08:00:00,73.1,71.3,29.62,SSE,152,4.0,11.0,94,0.00,,BKN050,0.00,VWS V14.01,2013-06-26 13:00:00,
2013-06-26 08:05:00,73.4,71.6,29.62,SSW,202,3.0,7.0,94,0.00,,BKN050,0.00,VWS V14.01,2013-06-26 13:05:00,
2013-06-26 08:10:00,73.7,71.9,29.63,SSW,211,6.0,7.0,94,0.00,,BKN050,0.00,VWS V14.01,2013-06-26 13:10:00,
2013-06-26 08:15:00,73.9,71.8,29.63,South,190,6.0,11.0,93,0.00,,BKN050,0.00,VWS V14.01,2013-06-26 13:15:00,
2013-06-26 08:20:00,74.0,71.8,29.63,SE,142,6.0,11.0,93,0.00,,BKN050,0.00,VWS V14.01,2013-06-26 13:20:00,
2013-06-26 08:25:00,74.1,71.9,29.64,SSW,210,7.0,11.0,93,0.00,,BKN050,0.00,VWS V14.01,2013-06-26 13:25:00,
2013-06-26 08:30:00,74.4,72.2,29.63,SE,143,6.0,11.0,93,0.00,,BKN050,0.00,VWS V14.01,2013-06-26 13:30:00,
2013-06-26 08:35:00,74.8,72.6,29.63,SSW,205,8.0,11.0,93,0.00,,BKN019,0.00,VWS V14.01,2013-06-26 13:35:00,
2013-06-26 08:40:00,75.3,72.8,29.63,SSE,166,2.0,11.0,92,0.00,,BKN019,0.00,VWS V14.01,2013-06-26 13:40:00,
2013-06-26 08:45:00,76.0,73.5,29.63,SSW,193,3.0,11.0,92,0.00,,BKN019,0.00,VWS V14.01,2013-06-26 13:45:00,
2013-06-26 08:50:00,76.2,73.1,29.63,SSW,212,2.0,11.0,90,0.00,,BKN019,0.00,VWS V14.01,2013-06-26 13:50:00,
2013-06-26 08:55:00,76.3,73.2,29.64,SSE,153,2.0,11.0,90,0.00,,OVC019,0.00,VWS V14.01,2013-06-26 13:55:00,
2013-06-26 09:00:00,76.4,73.2,29.65,SSW,198,2.0,11.0,90,0.00,,OVC019,0.00,VWS V14.01,2013-06-26 14:00:00,
2013-06-26 09:05:00,76.4,73.2,29.65,SSW,206,2.0,6.0,90,0.00,,OVC019,0.00,VWS V14.01,2013-06-26 14:05:00,
2013-06-26 09:10:00,76.3,73.2,29.66,WSW,243,2.0,6.0,90,0.00,,OVC019,0.00,VWS V14.01,2013-06-26 14:10:00,
2013-06-26 09:15:00,76.2,73.4,29.65,SSE,154,1.0,6.0,91,0.00,,OVC019,0.00,VWS V14.01,2013-06-26 14:15:00,
2013-06-26 09:20:00,76.2,73.4,29.66,SSW,197,2.0,6.0,91,0.00,,OVC019,0.00,VWS V14.01,2013-06-26 14:20:00,
2013-06-26 09:25:00,76.2,73.4,29.65,SSW,193,2.0,6.0,91,0.00,,OVC019,0.00,VWS V14.01,2013-06-26 14:25:00,
2013-06-26 09:30:00,76.1,73.3,29.64,SW,215,2.0,6.0,91,0.00,,OVC019,0.00,VWS V14.01,2013-06-26 14:30:00,
2013-06-26 09:35:00,76.0,73.5,29.64,SSE,160,3.0,5.0,92,0.00,,OVC019,0.00,VWS V14.01,2013-06-26 14:35:00,
2013-06-26 09:40:00,76.0,73.5,29.64,South,184,1.0,5.0,92,0.00,,OVC019,0.00,VWS V14.01,2013-06-26 14:40:00,
2013-06-26 09:45:00,76.0,73.5,29.63,South,171,4.0,6.0,92,0.00,,OVC019,0.00,VWS V14.01,2013-06-26 14:45:00,
2013-06-26 09:50:00,75.8,73.6,29.63,SSW,208,4.0,6.0,93,0.00,,OVC019,0.00,VWS V14.01,2013-06-26 14:50:00,
2013-06-26 09:55:00,75.8,73.6,29.63,SSE,165,1.0,6.0,93,0.00,,OVC019,0.00,VWS V14.01,2013-06-26 14:55:00,
2013-06-26 10:00:00,75.7,73.5,29.62,SE,136,2.0,6.0,93,0.00,,OVC018,0.00,VWS V14.01,2013-06-26 15:00:00,
2013-06-26 10:05:00,75.7,73.8,29.62,South,188,5.0,7.0,94,0.00,,OVC018,0.00,VWS V14.01,2013-06-26 15:05:00,
2013-06-26 10:10:00,75.8,73.9,29.63,WSW,242,4.0,7.0,94,0.00,,-RA,0.00,VWS V14.01,2013-06-26 15:10:00,
2013-06-26 10:15:00,75.7,72.9,29.63,WSW,240,5.0,8.0,91,0.00,,-RA,0.00,VWS V14.01,2013-06-26 15:15:00,
2013-06-26 10:20:00,75.7,73.2,29.62,SW,232,3.0,8.0,92,0.00,,-RA,0.00,VWS V14.01,2013-06-26 15:20:00,
2013-06-26 10:25:00,75.5,73.0,29.62,SSW,212,5.0,9.0,92,0.00,,-RA,0.00,VWS V14.01,2013-06-26 15:25:00,
2013-06-26 10:30:00,75.5,73.3,29.63,WSW,248,5.0,9.0,93,0.01,,-RA,0.01,VWS V14.01,2013-06-26 15:30:00,
2013-06-26 10:35:00,75.5,73.7,29.63,WNW,285,3.0,7.0,94,0.01,,-RA,0.01,VWS V14.01,2013-06-26 15:35:00,
2013-06-26 10:40:00,75.5,73.7,29.63,WSW,246,7.0,7.0,94,0.01,,-RA,0.01,VWS V14.01,2013-06-26 15:40:00,
2013-06-26 10:45:00,75.6,74.1,29.62,WSW,238,4.0,8.0,95,0.01,,-RA,0.01,VWS V14.01,2013-06-26 15:45:00,
2013-06-26 10:50:00,75.7,74.2,29.63,WSW,256,6.0,9.0,95,0.01,,-RA,0.01,VWS V14.01,2013-06-26 15:50:00,
2013-06-26 10:55:00,75.8,74.3,29.62,WSW,239,5.0,10.0,95,0.01,,SCT030,0.01,VWS V14.01,2013-06-26 15:55:00,
2013-06-26 11:00:00,76.1,74.6,29.62,SSW,203,3.0,10.0,95,0.01,,SCT030,0.01,VWS V14.01,2013-06-26 16:00:00,
2013-06-26 11:05:00,76.4,74.9,29.62,SW,221,6.0,9.0,95,0.01,,SCT030,0.01,VWS V14.01,2013-06-26 16:05:00,
2013-06-26 11:10:00,76.7,75.2,29.62,SSW,204,2.0,9.0,95,0.01,,SCT030,0.01,VWS V14.01,2013-06-26 16:10:00,
2013-06-26 11:15:00,77.1,75.2,29.62,SSW,201,3.0,9.0,94,0.01,,SCT030,0.01,VWS V14.01,2013-06-26 16:15:00,
2013-06-26 11:20:00,77.7,75.8,29.62,South,187,6.0,9.0,94,0.01,,SCT030,0.01,VWS V14.01,2013-06-26 16:20:00,
2013-06-26 11:25:00,78.2,75.7,29.62,SW,229,2.0,9.0,92,0.01,,SCT030,0.01,VWS V14.01,2013-06-26 16:25:00,
2013-06-26 11:30:00,78.8,75.9,29.62,SW,227,1.0,10.0,91,0.01,,SCT030,0.01,VWS V14.01,2013-06-26 16:30:00,
2013-06-26 11:35:00,79.0,75.5,29.62,WSW,239,5.0,7.0,89,0.00,,SCT030,0.01,VWS V14.01,2013-06-26 16:35:00,
2013-06-26 11:40:00,79.4,76.2,29.63,WNW,283,6.0,9.0,90,0.00,,FEW007,0.01,VWS V14.01,2013-06-26 16:40:00,
2013-06-26 11:45:00,79.7,76.5,29.63,SW,233,5.0,9.0,90,0.00,,FEW007,0.01,VWS V14.01,2013-06-26 16:45:00,
2013-06-26 11:50:00,79.9,76.0,29.63,WSW,257,6.0,9.0,88,0.00,,FEW007,0.01,VWS V14.01,2013-06-26 16:50:00,
2013-06-26 11:55:00,80.1,76.2,29.63,South,184,2.0,10.0,88,0.00,,FEW007,0.01,VWS V14.01,2013-06-26 16:55:00,
2013-06-26 12:00:00,80.7,76.1,29.64,WSW,248,8.0,11.0,86,0.00,,BKN009,0.01,VWS V14.01,2013-06-26 17:00:00,
2013-06-26 12:05:00,81.1,76.5,29.64,SW,222,4.0,9.0,86,0.00,,BKN009,0.01,VWS V14.01,2013-06-26 17:05:00,
2013-06-26 12:10:00,81.6,76.7,29.64,WSW,247,8.0,11.0,85,0.00,,BKN009,0.01,VWS V14.01,2013-06-26 17:10:00,
2013-06-26 12:15:00,81.7,76.0,29.65,West,281,4.0,11.0,83,0.00,,BKN009,0.01,VWS V14.01,2013-06-26 17:15:00,
2013-06-26 12:20:00,82.3,75.5,29.65,SW,235,2.0,11.0,80,0.00,,BKN011,0.01,VWS V14.01,2013-06-26 17:20:00,
2013-06-26 12:25:00,82.5,75.3,29.65,WSW,247,5.0,11.0,79,0.00,,BKN011,0.01,VWS V14.01,2013-06-26 17:25:00,
2013-06-26 12:30:00,82.8,74.5,29.65,West,281,3.0,11.0,76,0.00,,BKN011,0.01,VWS V14.01,2013-06-26 17:30:00,
2013-06-26 12:35:00,83.0,74.7,29.65,West,274,7.0,8.0,76,0.00,,SCT019,0.01,VWS V14.01,2013-06-26 17:35:00,
2013-06-26 12:40:00,82.5,74.6,29.66,West,278,1.0,9.0,77,0.00,,SCT019,0.01,VWS V14.01,2013-06-26 17:40:00,
2013-06-26 12:45:00,82.5,74.6,29.66,NW,316,0.0,9.0,77,0.00,,SCT019,0.01,VWS V14.01,2013-06-26 17:45:00,
2013-06-26 12:50:00,82.8,74.5,29.65,NNW,345,1.0,9.0,76,0.00,,SCT019,0.01,VWS V14.01,2013-06-26 17:50:00,
2013-06-26 12:55:00,83.8,75.4,29.65,NW,314,2.0,9.0,76,0.00,,SCT019,0.01,VWS V14.01,2013-06-26 17:55:00,
2013-06-26 13:00:00,84.0,74.4,29.65,WNW,285,1.0,9.0,73,0.00,,BKN032,0.01,VWS V14.01,2013-06-26 18:00:00,
2013-06-26 13:05:00,83.4,75.1,29.66,West,274,0.0,2.0,76,0.00,,BKN032,0.01,VWS V14.01,2013-06-26 18:05:00,
2013-06-26 13:10:00,83.7,75.7,29.65,WNW,285,0.0,2.0,77,0.00,,-RA,0.01,VWS V14.01,2013-06-26 18:10:00,
2013-06-26 13:15:00,83.8,74.6,29.65,WNW,300,0.0,5.0,74,0.00,,-RA,0.01,VWS V14.01,2013-06-26 18:15:00,
2013-06-26 13:20:00,83.9,75.1,29.65,WNW,293,1.0,5.0,75,0.00,,-RA,0.01,VWS V14.01,2013-06-26 18:20:00,
2013-06-26 13:25:00,84.2,76.2,29.65,WNW,291,0.0,6.0,77,0.00,,-RA,0.01,VWS V14.01,2013-06-26 18:25:00,
2013-06-26 13:30:00,84.6,75.8,29.65,NNW,339,2.0,9.0,75,0.00,,-RA,0.01,VWS V14.01,2013-06-26 18:30:00,
2013-06-26 13:35:00,85.4,76.2,29.65,NW,314,3.0,4.0,74,0.00,,-RA,0.01,VWS V14.01,2013-06-26 18:35:00,
2013-06-26 13:40:00,85.4,75.3,29.64,North,354,2.0,6.0,72,0.00,,-RA,0.01,VWS V14.01,2013-06-26 18:40:00,
2013-06-26 13:45:00,85.7,76.5,29.64,NNE,23,2.0,6.0,74,0.00,,-RA,0.01,VWS V14.01,2013-06-26 18:45:00,
2013-06-26 13:50:00,85.2,75.2,29.65,NNW,347,2.0,6.0,72,0.00,,-RA,0.01,VWS V14.01,2013-06-26 18:50:00,
2013-06-26 13:55:00,85.3,76.1,29.64,NNW,332,2.0,6.0,74,0.00,,-RA,0.01,VWS V14.01,2013-06-26 18:55:00,
2013-06-26 14:00:00,85.6,75.5,29.64,NW,318,3.0,6.0,72,0.00,,-RA,0.01,VWS V14.01,2013-06-26 19:00:00,
2013-06-26 14:05:00,85.2,74.7,29.64,ENE,67,5.0,11.0,71,0.00,,SCT065,0.01,VWS V14.01,2013-06-26 19:05:00,
2013-06-26 14:10:00,84.4,74.0,29.64,West,277,2.0,11.0,71,0.00,,SCT065,0.01,VWS V14.01,2013-06-26 19:10:00,
2013-06-26 14:15:00,84.7,74.7,29.64,NE,48,3.0,11.0,72,0.00,,SCT065,0.01,VWS V14.01,2013-06-26 19:15:00,
2013-06-26 14:20:00,84.6,74.6,29.64,NW,309,3.0,11.0,72,0.00,,SCT065,0.01,VWS V14.01,2013-06-26 19:20:00,
2013-06-26 14:25:00,85.1,75.1,29.65,North,9,4.0,11.0,72,0.00,,SCT065,0.01,VWS V14.01,2013-06-26 19:25:00,
2013-06-26 14:30:00,85.2,73.9,29.65,NE,44,3.0,11.0,69,0.00,,SCT065,0.01,VWS V14.01,2013-06-26 19:30:00,
2013-06-26 14:35:00,85.3,74.8,29.65,WNW,284,0.0,6.0,71,0.00,,SCT065,0.01,VWS V14.01,2013-06-26 19:35:00,
2013-06-26 14:40:00,85.6,73.8,29.65,NE,34,0.0,6.0,68,0.00,,SCT065,0.01,VWS V14.01,2013-06-26 19:40:00,
2013-06-26 14:45:00,85.8,74.0,29.65,North,11,3.0,6.0,68,0.00,,SCT065,0.01,VWS V14.01,2013-06-26 19:45:00,
2013-06-26 15:00:00,85.6,75.1,29.64,WNW,302,3.0,6.0,71,0.00,,,0.01,VWS V14.01,2013-06-26 20:00:00,
2013-06-26 15:30:00,85.2,73.9,29.65,NNE,25,3.0,11.0,69,0.00,,,0.01,VWS V14.01,2013-06-26 20:30:00,